Pamporovo, Bulgaria 16 day weather forecast

Slopes altitude range 1450 m - 1935m

Number of lifts: 14 Pistes: 37km

In some cases the lift and piste totals shown are for the ski domain (e.g. Three Valleys) rather than individual resort (e.g. Courchevel)

Overview

The 16 day weather forecast is fully updated 4 times every day.

    • Sun 26 MAY 2019
    • Sun 26
    • 15C 18C
    • Mon 27 MAY 2019
    • Mon 27
    • 17C 21C
    • Tue 28 MAY 2019
    • Tue 28
    • 17C 19C
    • Wed 29 MAY 2019
    • Wed 29
    • 16C 20C
    • Thu 30 MAY 2019
    • Thu 30
    • 17C 18C
    • Fri 31 MAY 2019
    • Fri 31
    • 15C 16C
    • Sat 01 JUN 2019
    • Sat 01
    • 12C 14C
    • Sun 02 JUN 2019
    • Sun 02
    • 9C 12C
    • Mon 03 JUN 2019
    • Mon 03
    • 13C 19C
    • Tue 04 JUN 2019
    • Tue 04
    • 16C 21C
    • Wed 05 JUN 2019
    • Wed 05
    • 14C 20C
    • Thu 06 JUN 2019
    • Thu 06
    • 16C 22C
    • Fri 07 JUN 2019
    • Fri 07
    • 17C 23C
    • Sat 08 JUN 2019
    • Sat 08
    • 18C 25C
    • Sun 09 JUN 2019
    • Sun 09
    • 20C 26C
    • Mon 10 JUN 2019
    • Mon 10
    • 20C 26C

Date:

Time Type 0°C level Temp Chill Snow Cloud Speed Gust Dir Press
12:00 3440m 18°C 18_6 0cm 83% 6mph 8mph 1016mB
15:00 3701m 17°C 17_6 0cm 89% 6mph 8mph 1016mB
18:00 3754m 17°C 17_2 0cm 94% 2mph 3mph 1016mB
21:00 3811m 11°C 11_4 0cm 99% 4mph 5mph 1017mB
0:00 3834m 10°C 10_4 0cm 66% 4mph 4mph 1017mB
3:00 3871m 9°C 9_2 0cm 35% 2mph 2mph 1016mB
6:00 3909m 9°C 9_3 0cm 50% 3mph 4mph 1016mB
9:00 3984m 17°C 17_7 0cm 96% 7mph 7mph 1016mB
12:00 4014m 21°C 21_7 0cm 98% 7mph 8mph 1015mB
15:00 3966m 20°C 20_6 0cm 100% 6mph 7mph 1014mB
18:00 3954m 20°C 20_1 0cm 100% 1mph 2mph 1014mB
21:00 3914m 10°C 10_3 0cm 65% 3mph 3mph 1014mB
0:00 3810m 9°C 9_2 0cm 32% 2mph 3mph 1013mB
3:00 3745m 9°C 9_2 0cm 0% 2mph 3mph 1012mB
6:00 3676m 9°C 9_8 0cm 0% 8mph 15mph 1011mB
9:00 3688m 17°C 17_11 0cm 0% 11mph 21mph 1010mB
12:00 3746m 19°C 19_12 0cm 0% 12mph 23mph 1008mB
15:00 3721m 19°C 19_9 0cm 0% 9mph 14mph 1007mB
18:00 3722m 19°C 19_3 0cm 0% 3mph 4mph 1008mB
21:00 3690m 9°C 9_2 0cm 0% 2mph 3mph 1010mB
0:00 3744m 9°C 9_2 0cm 0% 2mph 3mph 1010mB
3:00 3707m 8°C 8_3 0cm 0% 3mph 4mph 1010mB
6:00 3595m 8°C 8_4 0cm 0% 4mph 6mph 1011mB
9:00 3496m 16°C 16_8 0cm 0% 8mph 8mph 1011mB
12:00 3574m 20°C 20_9 0cm 2% 9mph 11mph 1010mB
15:00 3694m 20°C 20_8 0cm 8% 8mph 11mph 1010mB
18:00 3770m 20°C 20_3 0cm 6% 3mph 4mph 1011mB
21:00 3729m 10°C 10_4 0cm 0% 4mph 5mph 1013mB
0:00 3639m 10°C 10_5 0cm 0% 5mph 6mph 1013mB
3:00 3495m 10°C 10_5 0cm 1% 5mph 6mph 1014mB
6:00 3382m 10°C 10_3 0cm 6% 3mph 5mph 1014mB
9:00 3538m 17°C 17_6 0cm 7% 6mph 8mph 1014mB
12:00 3629m 18°C 18_6 0cm 28% 6mph 8mph 1013mB
15:00 3691m 18°C 18_6 0cm 23% 6mph 8mph 1012mB
18:00 3621m 18°C 18_2 0cm 15% 2mph 3mph 1013mB
21:00 3549m 10°C 10_3 0cm 0% 3mph 3mph 1013mB
0:00 3474m 10°C 10_3 0cm 0% 3mph 4mph 1013mB
3:00 3268m 9°C 9_3 0cm 0% 3mph 4mph 1012mB
6:00 3144m 9°C 9_3 0cm 1% 3mph 5mph 1012mB
9:00 3103m 15°C 15_6 0cm 0% 6mph 8mph 1011mB
12:00 3139m 16°C 16_5 0cm 2% 5mph 6mph 1010mB
15:00 3129m 16°C 16_2 0cm 52% 2mph 4mph 1010mB
18:00 3071m 16°C 16_3 0cm 74% 3mph 3mph 1010mB
21:00 2936m 8°C 8_4 0cm 100% 4mph 5mph 1011mB
0:00 2883m 8°C 8_4 0cm 100% 4mph 5mph 1010mB
3:00 2823m 8°C 8_4 0cm 96% 4mph 4mph 1010mB
6:00 2853m 8°C 8_3 0cm 91% 3mph 4mph 1010mB
9:00 2817m 12°C 12_4 0cm 92% 4mph 5mph 1010mB
12:00 2789m 14°C 14_1 0cm 96% 1mph 1mph 1010mB
15:00 2807m 12°C 12_5 0cm 100% 5mph 9mph 1010mB
18:00 2764m 12°C 12_6 0cm 99% 6mph 11mph 1012mB
21:00 2744m 6°C 6_6 0cm 97% 6mph 10mph 1013mB
0:00 2688m 6°C 6_5 0cm 98% 5mph 8mph 1013mB
3:00 2657m 6°C 6_4 0cm 100% 4mph 4mph 1014mB
6:00 2537m 6°C 6_1 0cm 99% 1mph 2mph 1014mB
9:00 2554m 9°C 9_3 0cm 98% 3mph 4mph 1014mB
12:00 2727m 12°C 12_1 0cm 97% 1mph 1mph 1014mB
15:00 2753m 13°C 13_2 0cm 97% 2mph 2mph 1013mB
18:00 2739m 13°C 13_3 0cm 98% 3mph 3mph 1015mB
21:00 2553m 13°C 13_1 0cm 99% 1mph 2mph 1016mB
0:00 2558m 12°C 12_5 0cm 99% 5mph 7mph 1016mB
3:00 2621m 11°C 11_5 0cm 96% 5mph 7mph 1015mB
6:00 2509m 11°C 11_6 0cm 96% 6mph 9mph 1015mB
9:00 2569m 13°C 13_7 0cm 28% 7mph 7mph 1015mB
12:00 2679m 19°C 19_7 0cm 34% 7mph 8mph 1015mB
15:00 2703m 18°C 18_6 0cm 57% 6mph 7mph 1014mB
18:00 2673m 18°C 18_4 0cm 32% 4mph 5mph 1015mB
21:00 2716m 12°C 12_3 0cm 15% 3mph 4mph 1017mB
0:00 2690m 11°C 11_2 0cm 14% 2mph 3mph 1016mB
3:00 2696m 10°C 10_4 0cm 7% 4mph 5mph 1016mB
6:00 2678m 11°C 11_4 0cm 4% 4mph 4mph 1016mB
9:00 2756m 16°C 16_3 0cm 15% 3mph 2mph 1016mB
12:00 2861m 21°C 21_4 0cm 24% 4mph 3mph 1015mB
15:00 2812m 20°C 20_4 0cm 85% 4mph 5mph 1015mB
18:00 2850m 20°C 20_5 0cm 92% 5mph 6mph 1016mB
21:00 2895m 13°C 13_2 0cm 96% 2mph 2mph 1017mB
0:00 2887m 12°C 12_1 0cm 71% 1mph 2mph 1017mB
3:00 2788m 12°C 12_1 0cm 91% 1mph 2mph 1017mB
6:00 2823m 12°C 12_2 0cm 87% 2mph 2mph 1018mB
Afternoon 0mm 0.0625 3020m 20°C 20_4 0cm 68% 4mph 5mph 1016mB
Morning 0mm 0 2958m 11°C 11_3 0cm 41% 3mph 3mph 1018mB
Afternoon 0.192708mm 5.4375 3139m 22°C 22_3 0cm 78% 3mph 4mph 1015mB
Morning 0.00520833mm 0 3114m 12°C 12_4 0cm 34% 4mph 3mph 1015mB
Afternoon 0.317708mm 0 3268m 23°C 23_4 0cm 79% 4mph 5mph 1013mB
Morning 0.0208333mm 0 3258m 13°C 13_4 0cm 37% 4mph 5mph 1015mB
Afternoon 0.421875mm 0 3476m 25°C 25_4 0cm 73% 4mph 5mph 1014mB
Morning 0.0520833mm 0 3434m 14°C 14_5 0cm 21% 5mph 6mph 1016mB
Afternoon 1.00521mm 0 3515m 26°C 26_5 0cm 79% 5mph 5mph 1014mB
Morning 0.380208mm 0 3486m 15°C 15_5 0cm 45% 5mph 6mph 1014mB
Afternoon 0mm 0 3608m 26°C 26_5 0cm 70% 5mph 6mph 1011mB
Morning 0mm 0 3676m 15°C 15_5 0cm 55% 5mph 7mph 1012mB

16 day outlook at a glance

Forecast issued: 26/05/2019 11:07:26

Chat

Your comments and questions. In a resort? Let us know what it's like!


Characters left 250

For terms and conditions see Readers Comments on the Cookie and privacy policy page.